OKBID LKSZ-EGLC

Flight info

Callsign OKBID
Flight time N/A
Altitude 8500
Route DCT KONAR DCT RUNEN DCT KBO DCT MAPAD DCT OGBOL DCT BUB DCT 5058N00157E DCT DVR DCT QEII
Aircraft BR23/L-SGY/S

Departure

Time 2026-04-19 08:16
Airport Sazená Airfield (LKSZ)

Arrival

Time N/A
Airport London City Airport (EGLC)
Time Latitude Longitude Altitude Speed Heading
2026-04-19 08:02 50.31915 14.26202 763 ft 0 kts 106°
2026-04-19 08:12 50.31915 14.26223 766 ft 4 kts 83°
2026-04-19 08:12 50.31923 14.26271 767 ft 5 kts 66°
2026-04-19 08:13 50.31932 14.26301 767 ft 2 kts 66°
2026-04-19 08:13 50.31936 14.26324 767 ft 0 kts 80°
2026-04-19 08:14 50.31948 14.26374 767 ft 3 kts
2026-04-19 08:14 50.31956 14.26370 767 ft 5 kts 324°
2026-04-19 08:15 50.32144 14.26169 766 ft 56 kts 326°
2026-04-19 08:15 50.32503 14.25777 881 ft 65 kts 324°
2026-04-19 08:15 50.32908 14.25341 944 ft 79 kts 324°
2026-04-19 08:15 50.33382 14.24822 1003 ft 86 kts 323°
2026-04-19 08:16 50.33902 14.24261 997 ft 95 kts 324°
2026-04-19 08:16 50.34332 14.23560 1066 ft 91 kts 278°
2026-04-19 08:16 50.34349 14.22615 1293 ft 81 kts 281°
2026-04-19 08:16 50.34451 14.21762 1502 ft 81 kts 276°
2026-04-19 08:17 50.34539 14.20901 1739 ft 80 kts 275°
2026-04-19 08:17 50.34621 14.20062 1924 ft 78 kts 275°
2026-04-19 08:17 50.34702 14.19212 2148 ft 77 kts 272°
2026-04-19 08:17 50.34778 14.18396 2355 ft 77 kts 273°
2026-04-19 08:18 50.34876 14.17577 2536 ft 77 kts 279°
2026-04-19 08:18 50.34946 14.16753 2700 ft 78 kts 269°
2026-04-19 08:18 50.35009 14.15915 2907 ft 77 kts 273°
2026-04-19 08:18 50.35077 14.15094 3126 ft 76 kts 272°
2026-04-19 08:19 50.35150 14.14272 3306 ft 77 kts 274°
2026-04-19 08:19 50.35227 14.13448 3477 ft 77 kts 274°
2026-04-19 08:19 50.35312 14.12549 3505 ft 88 kts 275°
2026-04-19 08:19 50.35403 14.11594 3510 ft 89 kts 273°
2026-04-19 08:20 50.35493 14.10631 3505 ft 89 kts 274°
2026-04-19 08:20 50.35582 14.09673 3505 ft 89 kts 274°
2026-04-19 08:20 50.35671 14.08713 3504 ft 89 kts 275°
2026-04-19 08:20 50.35758 14.07761 3505 ft 90 kts 274°
2026-04-19 08:21 50.35844 14.06812 3504 ft 88 kts 274°
2026-04-19 08:21 50.35931 14.05866 3504 ft 87 kts 274°
2026-04-19 08:21 50.36016 14.04914 3502 ft 88 kts 274°
2026-04-19 08:21 50.36103 14.03957 3501 ft 88 kts 273°
2026-04-19 08:22 50.36190 14.03015 3503 ft 87 kts 274°
2026-04-19 08:22 50.36274 14.02076 3501 ft 88 kts 274°
2026-04-19 08:22 50.36361 14.01117 3547 ft 88 kts 274°
2026-04-19 08:22 50.36442 14.00229 3755 ft 75 kts 273°
2026-04-19 08:23 50.36511 13.99440 3936 ft 73 kts 271°
2026-04-19 08:23 50.36580 13.98661 4115 ft 73 kts 272°
2026-04-19 08:23 50.36649 13.97883 4281 ft 72 kts 271°
2026-04-19 08:23 50.36719 13.97098 4433 ft 73 kts 272°
2026-04-19 08:24 50.36790 13.96311 4555 ft 73 kts 272°
2026-04-19 08:24 50.36861 13.95528 4722 ft 71 kts 271°
2026-04-19 08:24 50.36928 13.94770 4851 ft 71 kts 271°
2026-04-19 08:24 50.36997 13.94007 4992 ft 70 kts 271°
2026-04-19 08:25 50.37065 13.93249 5111 ft 70 kts 270°
2026-04-19 08:25 50.37133 13.92485 5231 ft 71 kts 271°
2026-04-19 08:25 50.37202 13.91716 5348 ft 71 kts 270°
2026-04-19 08:25 50.37272 13.90950 5464 ft 71 kts 271°
2026-04-19 08:26 50.37339 13.90182 5576 ft 71 kts 271°
2026-04-19 08:26 50.37408 13.89421 5704 ft 70 kts 270°
2026-04-19 08:26 50.37474 13.88678 5829 ft 69 kts 270°
2026-04-19 08:26 50.37540 13.87928 5948 ft 70 kts 270°
2026-04-19 08:27 50.37608 13.87179 6067 ft 69 kts 270°
2026-04-19 08:27 50.37675 13.86430 6181 ft 70 kts 270°
2026-04-19 08:27 50.37740 13.85699 6292 ft 70 kts 270°
2026-04-19 08:27 50.37807 13.84948 6411 ft 69 kts 270°
2026-04-19 08:28 50.37873 13.84203 6505 ft 71 kts 270°
2026-04-19 08:28 50.37945 13.83379 6521 ft 82 kts 271°
2026-04-19 08:28 50.38028 13.82463 6529 ft 88 kts 271°
2026-04-19 08:28 50.38115 13.81484 6530 ft 93 kts 272°
2026-04-19 08:29 50.38206 13.80488 6526 ft 91 kts 272°
2026-04-19 08:29 50.38293 13.79514 6522 ft 89 kts 272°
2026-04-19 08:29 50.38378 13.78555 6525 ft 88 kts 272°
2026-04-19 08:29 50.38460 13.77635 6535 ft 85 kts 271°
2026-04-19 08:30 50.38541 13.76717 6533 ft 85 kts 271°
2026-04-19 08:30 50.38621 13.75797 6534 ft 86 kts 271°
2026-04-19 08:30 50.38704 13.74861 6536 ft 88 kts 272°
2026-04-19 08:30 50.38788 13.73909 6536 ft 88 kts 272°
2026-04-19 08:31 50.38871 13.72962 6531 ft 87 kts 271°
2026-04-19 08:31 50.38953 13.72027 6530 ft 86 kts 271°
2026-04-19 08:31 50.39035 13.71099 6532 ft 87 kts 271°
2026-04-19 08:31 50.39117 13.70151 6531 ft 88 kts 272°
2026-04-19 08:32 50.39200 13.69223 6530 ft 84 kts 271°
2026-04-19 08:32 50.39278 13.68331 6524 ft 81 kts 271°
2026-04-19 08:32 50.39355 13.67450 6515 ft 82 kts 271°
2026-04-19 08:32 50.39432 13.66563 6513 ft 82 kts 271°
2026-04-19 08:33 50.39509 13.65684 6513 ft 81 kts 271°
2026-04-19 08:33 50.39584 13.64814 6511 ft 80 kts 270°
2026-04-19 08:33 50.39659 13.63953 6512 ft 80 kts 270°
2026-04-19 08:33 50.39734 13.63090 6514 ft 80 kts 271°
2026-04-19 08:34 50.39809 13.62225 6512 ft 80 kts 271°
2026-04-19 08:34 50.39883 13.61368 6511 ft 79 kts 271°
2026-04-19 08:34 50.39957 13.60520 6511 ft 78 kts 270°
2026-04-19 08:34 50.40029 13.59683 6511 ft 79 kts 271°
2026-04-19 08:35 50.40105 13.58808 6510 ft 81 kts 271°
2026-04-19 08:35 50.40180 13.57936 6516 ft 82 kts 271°
2026-04-19 08:35 50.40258 13.57045 6524 ft 83 kts 271°
2026-04-19 08:35 50.40336 13.56137 6530 ft 84 kts 271°
2026-04-19 08:36 50.40415 13.55219 6528 ft 85 kts 271°
2026-04-19 08:36 50.40494 13.54306 6528 ft 84 kts 270°
2026-04-19 08:36 50.40573 13.53400 6528 ft 84 kts 270°
2026-04-19 08:36 50.40624 13.52804 6529 ft 83 kts 270°
2026-04-19 08:37 50.40701 13.51909 6524 ft 83 kts 271°
2026-04-19 08:37 50.40778 13.51016 6524 ft 83 kts 270°
2026-04-19 08:37 50.40855 13.50115 6527 ft 84 kts 271°
2026-04-19 08:37 50.40933 13.49208 6526 ft 84 kts 271°
2026-04-19 08:38 50.41010 13.48307 6526 ft 83 kts 270°
2026-04-19 08:38 50.41087 13.47409 6525 ft 83 kts 270°
2026-04-19 08:38 50.41164 13.46513 6525 ft 83 kts 271°
2026-04-19 08:38 50.41240 13.45626 6520 ft 81 kts 271°
2026-04-19 08:39 50.41313 13.44769 6515 ft 80 kts 271°
2026-04-19 08:39 50.41387 13.43909 6510 ft 80 kts 270°
2026-04-19 08:39 50.41461 13.43042 6507 ft 80 kts 270°
2026-04-19 08:39 50.41535 13.42171 6503 ft 81 kts 271°
2026-04-19 08:40 50.41609 13.41288 6507 ft 82 kts 271°
2026-04-19 08:40 50.41685 13.40397 6508 ft 83 kts 271°
2026-04-19 08:40 50.41761 13.39503 6507 ft 82 kts 271°
2026-04-19 08:40 50.41836 13.38616 6510 ft 82 kts 271°
2026-04-19 08:41 50.41912 13.37723 6509 ft 83 kts 270°
2026-04-19 08:41 50.41988 13.36831 6509 ft 82 kts 270°
2026-04-19 08:41 50.42062 13.35957 6508 ft 80 kts 270°
2026-04-19 08:41 50.42135 13.35093 6503 ft 80 kts 270°
2026-04-19 08:42 50.42208 13.34230 6501 ft 79 kts 270°
2026-04-19 08:42 50.42280 13.33376 6503 ft 79 kts 270°
2026-04-19 08:42 50.42352 13.32525 6501 ft 78 kts 270°
2026-04-19 08:42 50.42423 13.31675 6502 ft 79 kts 270°
2026-04-19 08:43 50.42495 13.30820 6501 ft 79 kts 270°
2026-04-19 08:43 50.42567 13.29964 6502 ft 78 kts 270°
2026-04-19 08:43 50.42636 13.29125 6504 ft 77 kts 270°
2026-04-19 08:43 50.42705 13.28280 6502 ft 79 kts 270°
2026-04-19 08:44 50.42778 13.27420 6503 ft 80 kts 270°
2026-04-19 08:44 50.42850 13.26556 6505 ft 80 kts 270°
2026-04-19 08:44 50.42923 13.25691 6507 ft 80 kts 270°
2026-04-19 08:44 50.42996 13.24826 6510 ft 80 kts 269°
2026-04-19 08:45 50.43069 13.23952 6513 ft 81 kts 270°
2026-04-19 08:45 50.43142 13.23081 6519 ft 82 kts 270°
2026-04-19 08:45 50.43217 13.22182 6519 ft 82 kts 270°
2026-04-19 08:45 50.43292 13.21291 6522 ft 83 kts 270°
2026-04-19 08:46 50.43368 13.20381 6517 ft 84 kts 270°
2026-04-19 08:46 50.43440 13.19510 6521 ft 82 kts 270°
2026-04-19 08:46 50.43516 13.18602 6520 ft 86 kts 270°
2026-04-19 08:46 50.43594 13.17662 6523 ft 88 kts 270°
2026-04-19 08:47 50.43673 13.16714 6520 ft 86 kts 270°
2026-04-19 08:47 50.43750 13.15793 6519 ft 84 kts 270°
2026-04-19 08:47 50.43824 13.14893 6518 ft 83 kts 270°
2026-04-19 08:47 50.43897 13.14003 6515 ft 82 kts 270°
2026-04-19 08:48 50.43971 13.13111 6514 ft 82 kts 270°
2026-04-19 08:48 50.44044 13.12225 6514 ft 82 kts 270°
2026-04-19 08:48 50.44117 13.11333 6515 ft 84 kts 270°
2026-04-19 08:48 50.44192 13.10419 6516 ft 84 kts 270°
2026-04-19 08:49 50.44268 13.09513 6517 ft 83 kts 270°
2026-04-19 08:49 50.44341 13.08621 6517 ft 82 kts 270°
2026-04-19 08:49 50.44412 13.07752 6513 ft 81 kts 270°
2026-04-19 08:49 50.44485 13.06867 6512 ft 82 kts 270°
2026-04-19 08:50 50.44545 13.05971 6517 ft 82 kts 268°
2026-04-19 08:50 50.44608 13.05105 6515 ft 79 kts 268°
2026-04-19 08:50 50.44664 13.04246 6513 ft 80 kts 268°
2026-04-19 08:50 50.44722 13.03383 6511 ft 79 kts 268°
2026-04-19 08:51 50.44780 13.02514 6516 ft 81 kts 268°
2026-04-19 08:51 50.44841 13.01621 6515 ft 81 kts 268°
2026-04-19 08:51 50.44899 13.00752 6514 ft 79 kts 268°
2026-04-19 08:51 50.44956 12.99888 6512 ft 80 kts 267°
2026-04-19 08:52 50.45013 12.99030 6507 ft 79 kts 268°
2026-04-19 08:52 50.45071 12.98185 6510 ft 77 kts 268°
2026-04-19 08:52 50.45126 12.97344 6507 ft 77 kts 268°
2026-04-19 08:52 50.45183 12.96506 6513 ft 77 kts 268°
2026-04-19 08:53 50.45240 12.95647 6509 ft 79 kts 268°
2026-04-19 08:53 50.45296 12.94795 6509 ft 78 kts 268°
2026-04-19 08:53 50.45351 12.93955 6511 ft 78 kts 268°
2026-04-19 08:53 50.45407 12.93112 6512 ft 78 kts 268°
2026-04-19 08:54 50.45463 12.92250 6513 ft 79 kts 268°
2026-04-19 08:54 50.45520 12.91412 6517 ft 77 kts 269°
2026-04-19 08:54 50.45575 12.90578 6516 ft 76 kts 269°
2026-04-19 08:54 50.45630 12.89745 6515 ft 78 kts 268°
2026-04-19 08:55 50.45687 12.88886 6513 ft 79 kts 268°
2026-04-19 08:55 50.45743 12.88025 6513 ft 79 kts 268°
2026-04-19 08:55 50.45800 12.87161 6515 ft 80 kts 268°
2026-04-19 08:55 50.45857 12.86296 6520 ft 80 kts 268°
2026-04-19 08:56 50.45913 12.85421 6526 ft 82 kts 268°
2026-04-19 08:56 50.45972 12.84523 6524 ft 83 kts 268°
2026-04-19 08:56 50.46031 12.83628 6524 ft 82 kts 268°
2026-04-19 08:56 50.46089 12.82737 6523 ft 81 kts 268°
2026-04-19 08:57 50.46147 12.81860 6522 ft 81 kts 268°
2026-04-19 08:57 50.46204 12.80995 6516 ft 78 kts 269°
2026-04-19 08:57 50.46258 12.80163 6512 ft 77 kts 269°
2026-04-19 08:57 50.46319 12.79310 6512 ft 79 kts 268°
2026-04-19 08:58 50.46369 12.78443 6515 ft 81 kts 268°
2026-04-19 08:58 50.46424 12.77561 6521 ft 81 kts 268°
2026-04-19 08:58 50.46481 12.76674 6543 ft 80 kts 268°
2026-04-19 08:58 50.46534 12.75882 6739 ft 65 kts 266°
2026-04-19 08:59 50.46575 12.75209 6880 ft 63 kts 266°
2026-04-19 08:59 50.46618 12.74537 6984 ft 60 kts 266°
2026-04-19 08:59 50.46659 12.73887 7062 ft 60 kts 266°
2026-04-19 08:59 50.46700 12.73239 7148 ft 59 kts 266°
2026-04-19 09:00 50.46742 12.72591 7271 ft 59 kts 265°
2026-04-19 09:00 50.46781 12.71950 7385 ft 58 kts 265°
2026-04-19 09:00 50.46822 12.71320 7441 ft 59 kts 266°
2026-04-19 09:00 50.46863 12.70681 7556 ft 58 kts 266°
2026-04-19 09:01 50.46903 12.70046 7643 ft 58 kts 265°
2026-04-19 09:01 50.46944 12.69407 7754 ft 59 kts 266°
2026-04-19 09:01 50.46985 12.68767 7869 ft 59 kts 266°
2026-04-19 09:01 50.47026 12.68128 7984 ft 59 kts 266°
2026-04-19 09:02 50.47067 12.67489 8095 ft 59 kts 266°
2026-04-19 09:02 50.47108 12.66854 8209 ft 58 kts 266°
2026-04-19 09:02 50.47148 12.66218 8329 ft 58 kts 266°
2026-04-19 09:02 50.47188 12.65584 8460 ft 58 kts 266°
2026-04-19 09:03 50.47229 12.64939 8509 ft 64 kts 267°
2026-04-19 09:03 50.47277 12.64210 8524 ft 69 kts 268°
2026-04-19 09:03 50.47328 12.63425 8533 ft 77 kts 269°
2026-04-19 09:03 50.47385 12.62572 8532 ft 78 kts 269°
2026-04-19 09:04 50.47439 12.61717 8534 ft 80 kts 269°
2026-04-19 09:04 50.47497 12.60828 8537 ft 84 kts 269°
2026-04-19 09:04 50.47557 12.59888 8537 ft 87 kts 269°
2026-04-19 09:04 50.47617 12.58958 8533 ft 85 kts 269°
2026-04-19 09:05 50.47675 12.58035 8528 ft 85 kts 269°
2026-04-19 09:05 50.47733 12.57112 8526 ft 85 kts 269°
2026-04-19 09:05 50.47791 12.56190 8521 ft 84 kts 269°
2026-04-19 09:05 50.47847 12.55292 8519 ft 81 kts 269°
2026-04-19 09:06 50.47902 12.54415 8517 ft 81 kts 269°
2026-04-19 09:06 50.47957 12.53544 8518 ft 80 kts 269°
2026-04-19 09:06 50.48010 12.52684 8519 ft 80 kts 269°
2026-04-19 09:06 50.48064 12.51819 8517 ft 79 kts 269°
2026-04-19 09:07 50.48118 12.50957 8516 ft 78 kts 269°
2026-04-19 09:07 50.48171 12.50098 8520 ft 80 kts 269°
2026-04-19 09:07 50.48226 12.49237 8519 ft 79 kts 269°
2026-04-19 09:07 50.48279 12.48380 8517 ft 79 kts 269°
2026-04-19 09:08 50.48332 12.47516 8519 ft 80 kts 268°
2026-04-19 09:08 50.48387 12.46645 8518 ft 80 kts 268°
2026-04-19 09:08 50.48441 12.45773 8514 ft 80 kts 268°
2026-04-19 09:08 50.48495 12.44910 8517 ft 79 kts 268°
2026-04-19 09:09 50.48548 12.44039 8517 ft 81 kts 268°
2026-04-19 09:09 50.48602 12.43154 8516 ft 81 kts 268°
2026-04-19 09:09 50.48657 12.42281 8515 ft 80 kts 268°
2026-04-19 09:09 50.48710 12.41418 8517 ft 79 kts 268°
2026-04-19 09:10 50.48763 12.40554 8519 ft 80 kts 268°
2026-04-19 09:10 50.48817 12.39678 8519 ft 81 kts 269°
2026-04-19 09:10 50.48871 12.38817 8519 ft 79 kts 269°
2026-04-19 09:10 50.48923 12.37965 8517 ft 78 kts 268°
2026-04-19 09:11 50.48974 12.37112 8518 ft 79 kts 268°
2026-04-19 09:11 50.49028 12.36245 8517 ft 80 kts 268°
2026-04-19 09:11 50.49080 12.35383 8515 ft 79 kts 268°
2026-04-19 09:11 50.49133 12.34522 8513 ft 79 kts 268°
2026-04-19 09:12 50.49186 12.33656 8513 ft 80 kts 269°
2026-04-19 09:12 50.49239 12.32778 8515 ft 81 kts 268°
2026-04-19 09:12 50.49293 12.31903 8518 ft 81 kts 268°
2026-04-19 09:12 50.49345 12.31032 8521 ft 81 kts 268°
2026-04-19 09:13 50.49399 12.30149 8517 ft 81 kts 268°
2026-04-19 09:13 50.49452 12.29277 8519 ft 80 kts 268°
2026-04-19 09:13 50.49506 12.28396 8520 ft 82 kts 268°
2026-04-19 09:13 50.49559 12.27506 8520 ft 83 kts 268°
2026-04-19 09:14 50.49614 12.26594 8523 ft 85 kts 269°
2026-04-19 09:14 50.49671 12.25651 8520 ft 86 kts 269°
2026-04-19 09:14 50.49728 12.24721 8522 ft 84 kts 269°
2026-04-19 09:14 50.49781 12.23818 8522 ft 83 kts 268°
2026-04-19 09:15 50.49836 12.22909 8518 ft 83 kts 269°
2026-04-19 09:15 50.49890 12.22016 8516 ft 82 kts 269°
2026-04-19 09:15 50.49996 12.20252 8508 ft 81 kts 268°
2026-04-19 09:16 50.50048 12.19373 8505 ft 80 kts 268°
2026-04-19 09:16 50.50100 12.18502 8499 ft 80 kts 268°
2026-04-19 09:16 50.50151 12.17634 8500 ft 80 kts 268°
2026-04-19 09:16 50.50203 12.16769 8499 ft 79 kts 268°
2026-04-19 09:17 50.50254 12.15913 8499 ft 79 kts 268°
2026-04-19 09:17 50.50305 12.15043 8500 ft 79 kts 268°
2026-04-19 09:17 50.50356 12.14186 8498 ft 79 kts 268°
2026-04-19 09:17 50.50406 12.13339 8505 ft 79 kts 270°
2026-04-19 09:18 50.50457 12.12480 8502 ft 79 kts 270°
2026-04-19 09:18 50.50509 12.11602 8502 ft 79 kts 270°
2026-04-19 09:18 50.50559 12.10757 8499 ft 79 kts 270°
2026-04-19 09:18 50.50608 12.09913 8500 ft 78 kts 270°
2026-04-19 09:19 50.50658 12.09058 8500 ft 78 kts 270°
2026-04-19 09:19 50.50707 12.08222 8498 ft 77 kts 270°
2026-04-19 09:19 50.50756 12.07393 8500 ft 75 kts 270°
2026-04-19 09:19 50.50804 12.06570 8498 ft 76 kts 270°
2026-04-19 09:20 50.50853 12.05738 8502 ft 77 kts 270°
2026-04-19 09:20 50.50901 12.04900 8498 ft 78 kts 270°
2026-04-19 09:20 50.50949 12.04050 8499 ft 78 kts 270°
2026-04-19 09:20 50.51000 12.03208 8500 ft 78 kts 270°
2026-04-19 09:21 50.51051 12.02343 8502 ft 79 kts 270°
2026-04-19 09:21 50.51101 12.01501 8504 ft 78 kts 270°
2026-04-19 09:21 50.51151 12.00639 8502 ft 78 kts 270°
2026-04-19 09:21 50.51199 11.99804 8504 ft 78 kts 270°
2026-04-19 09:22 50.51249 11.98957 8505 ft 77 kts 270°
2026-04-19 09:22 50.51297 11.98114 8502 ft 77 kts 270°
2026-04-19 09:22 50.51345 11.97280 8500 ft 76 kts 270°
2026-04-19 09:22 50.51393 11.96448 8497 ft 76 kts 270°
2026-04-19 09:23 50.51440 11.95626 8498 ft 76 kts 270°
2026-04-19 09:23 50.51472 11.95069 8502 ft 76 kts 270°
2026-04-19 09:23 50.51520 11.94225 8500 ft 77 kts 270°
2026-04-19 09:23 50.51569 11.93385 8503 ft 78 kts 270°
2026-04-19 09:24 50.51617 11.92539 8506 ft 78 kts 270°